Home   Weather   Township of Fairfield   Past weeks
Flag for USA

Past Weather in Township of Fairfield, Iowa, USA — Yesterday and Last 2 Weeks

Now
79 °F

Sunny.


Feels Like: 81 °F
Forecast: 83 / 64 °F
Wind: 9 mph from South

Location: Dubuque Regional Airport

Current Time: Jul 13, 2020 at 7:46:00 pm

Latest Report: Jul 13, 2020 at 6:53 pm


Visibility: 10 mi

Pressure: 29.93 "Hg

Humidity: 67%

Dew Point: 67 °F

Location of Township of FairfieldLocation

Past Weather in Township of Fairfield — Graph

°F

Township of Fairfield Temperature Yesterday

Maximum temperature yesterday: 81 °F (at 2:53 pm)
Minimum temperature yesterday: 64 °F (at 1:53 am)
Average temperature yesterday: 72 °F

High & Low Weather Summary for the Past Weeks

 TemperatureHumidityPressure
High90 °F (Jul 7, 2:53 pm)100% (Jun 30, 2:53 am)30.10 "Hg (Jun 30, 2:53 am)
Low61 °F (Jul 13, 3:53 am)46% (Jul 4, 5:53 pm)29.75 "Hg (Jun 28, 5:53 pm)
Average76 °F80%29.93 "Hg
* Reported Jun 28 5:53 pm — Jul 13 5:53 pm, Township of Fairfield. Weather by CustomWeather, © 2020

Note: Actual official high and low records may vary slightly from our data, if they occured in-between our weather recording intervals... More about our weather records

Township of Fairfield Weather History for the Previous 24 Hours

Scroll right to see more
 ConditionsComfort  
Time TempWeatherWind HumidityBarometerVisibility
5:53 pm
Mon, Jul 13
80 °FSunny.10 mph64%29.94 "Hg10 mi
4:53 pm81 °FSunny.9 mph60%29.95 "Hg10 mi
3:53 pm81 °FScattered clouds.12 mph62%29.96 "Hg10 mi
2:53 pm82 °FPassing clouds.9 mph63%29.97 "Hg10 mi
1:53 pm82 °FPassing clouds.10 mph60%29.98 "Hg10 mi
12:53 pm80 °FPassing clouds.9 mph64%29.99 "Hg10 mi
11:53 am78 °FScattered clouds.3 mph64%30.00 "Hg10 mi
10:53 am77 °FSunny.6 mph69%30.01 "Hg10 mi
9:53 am76 °FSunny.8 mph69%30.01 "Hg10 mi
8:53 am72 °FScattered clouds.6 mph81%30.01 "Hg10 mi
8:09 am71 °FPassing clouds.6 mph84%30.02 "Hg9 mi
7:53 am70 °FSunny.6 mph84%30.00 "Hg10 mi
6:53 am66 °FSunny.5 mph93%30.00 "Hg10 mi
5:53 am62 °FSunny.3 mph93%29.98 "Hg10 mi
4:53 am63 °FClear.No wind93%29.96 "Hg10 mi
3:53 am61 °FClear.3 mph97%29.95 "Hg10 mi
2:53 am64 °FClear.No wind94%29.95 "Hg10 mi
1:53 am64 °FClear.No wind94%29.95 "Hg10 mi
12:53 am66 °FClear.No wind87%29.95 "Hg10 mi
11:53 pm
Sun, Jul 12
66 °FClear.3 mph90%29.95 "Hg10 mi
10:53 pm68 °FClear.No wind87%29.94 "Hg10 mi
9:53 pm70 °FClear.No wind84%29.94 "Hg10 mi
8:53 pm75 °FClear.No wind74%29.93 "Hg10 mi
7:53 pm78 °FSunny.3 mph62%29.93 "Hg10 mi
Weather by CustomWeather, © 2020

See weather overview